When you browse on this site, cookies collect data to enhance your experience and personalize the content and advertising you see.
Visit our Privacy Policy to learn more. By continuing to use the site, you agree to this use of cookies and data.

Meteo pe oră la Gusyatin

Astăzi, 8 August, Sâmbătă

Timp Temperatura Precipitaţii Vânt Presiune Umiditate
00:00 +21°C° 0 mm 3 m/s 744 mmHg 88%
01:00 +20°C° 0 mm 2 m/s 744 mmHg 90%
02:00 +20°C° 0 mm 2 m/s 745 mmHg 91%
03:00 +20°C° 0.1 mm 2 m/s 745 mmHg 92%
04:00 +20°C° 0.1 mm 2 m/s 744 mmHg 93%
05:00 +19°C° 0.1 mm 2 m/s 744 mmHg 95%
06:00 +21°C° 0.1 mm 2 m/s 744 mmHg 90%
07:00 +23°C° 0.1 mm 2 m/s 744 mmHg 86%
08:00 +24°C° 0 mm 3 m/s 745 mmHg 79%
09:00 +26°C° 0.1 mm 3 m/s 745 mmHg 74%
10:00 +27°C° 0.1 mm 3 m/s 745 mmHg 68%
11:00 +28°C° 0.1 mm 4 m/s 744 mmHg 62%
12:00 +28°C° 0 mm 4 m/s 744 mmHg 60%
13:00 +29°C° 0 mm 4 m/s 744 mmHg 58%
14:00 +29°C° 0 mm 3 m/s 744 mmHg 55%
15:00 +29°C° 0 mm 3 m/s 744 mmHg 57%
16:00 +29°C° 0 mm 4 m/s 743 mmHg 59%
17:00 +28°C° 0 mm 4 m/s 743 mmHg 61%
18:00 +27°C° 0 mm 3 m/s 743 mmHg 66%
19:00 +25°C° 0 mm 3 m/s 743 mmHg 72%
20:00 +23°C° 0 mm 2 m/s 743 mmHg 78%
21:00 +23°C° 0 mm 2 m/s 743 mmHg 79%
22:00 +21°C° 0 mm 2 m/s 743 mmHg 81%
23:00 +20°C° 0 mm 2 m/s 743 mmHg 83%

Mâine, 9 August, Duminică

Timp Temperatura Precipitaţii Vânt Presiune Umiditate
00:00 +20°C° 0 mm 2 m/s 743 mmHg 85%
01:00 +20°C° 0 mm 1 m/s 743 mmHg 86%
02:00 +20°C° 0 mm 1 m/s 743 mmHg 87%
03:00 +20°C° 0 mm 1 m/s 743 mmHg 88%
04:00 +19°C° 0 mm 1 m/s 742 mmHg 89%
05:00 +19°C° 0 mm 1 m/s 742 mmHg 90%
06:00 +21°C° 0 mm 1 m/s 742 mmHg 85%
07:00 +22°C° 0 mm 1 m/s 742 mmHg 79%
08:00 +24°C° 0 mm 1 m/s 742 mmHg 74%
09:00 +25°C° 0.5 mm 1 m/s 742 mmHg 70%
10:00 +26°C° 0.5 mm 1 m/s 742 mmHg 67%
11:00 +27°C° 0.5 mm 1 m/s 742 mmHg 63%
12:00 +27°C° 2.8 mm 1 m/s 742 mmHg 64%
13:00 +27°C° 2.8 mm 1 m/s 741 mmHg 64%
14:00 +27°C° 2.8 mm 2 m/s 741 mmHg 65%
15:00 +27°C° 0.9 mm 1 m/s 741 mmHg 66%
16:00 +27°C° 0.9 mm 1 m/s 741 mmHg 66%
17:00 +27°C° 0.9 mm 1 m/s 740 mmHg 67%
18:00 +26°C° 0 mm 1 m/s 740 mmHg 70%
19:00 +24°C° 0 mm 1 m/s 740 mmHg 74%
20:00 +23°C° 0 mm 1 m/s 740 mmHg 77%
21:00 +22°C° 0 mm 1 m/s 740 mmHg 78%
22:00 +22°C° 0 mm 1 m/s 741 mmHg 80%
23:00 +21°C° 0 mm 1 m/s 741 mmHg 81%

Poimâine, 10 August, Luni

Timp Temperatura Precipitaţii Vânt Presiune Umiditate
00:00 +21°C° 0 mm 1 m/s 740 mmHg 82%
01:00 +20°C° 0 mm 1 m/s 740 mmHg 83%
02:00 +20°C° 0 mm 1 m/s 740 mmHg 84%
03:00 +20°C° 0.1 mm 1 m/s 740 mmHg 85%
04:00 +19°C° 0.1 mm 1 m/s 740 mmHg 85%
05:00 +19°C° 0.1 mm 1 m/s 740 mmHg 86%
06:00 +20°C° 0.3 mm 1 m/s 740 mmHg 82%
07:00 +22°C° 0.3 mm 1 m/s 740 mmHg 79%
08:00 +23°C° 0.3 mm 1 m/s 740 mmHg 76%
09:00 +24°C° 1 mm 1 m/s 740 mmHg 72%
10:00 +25°C° 1 mm 1 m/s 740 mmHg 69%
11:00 +26°C° 1 mm 2 m/s 741 mmHg 65%
12:00 +27°C° 1.3 mm 1 m/s 740 mmHg 63%
13:00 +27°C° 1.3 mm 1 m/s 740 mmHg 60%
14:00 +27°C° 1.3 mm 1 m/s 740 mmHg 58%
15:00 +28°C° 0.1 mm 1 m/s 740 mmHg 57%
16:00 +28°C° 0.1 mm 1 m/s 740 mmHg 57%
17:00 +28°C° 0.1 mm 1 m/s 740 mmHg 56%
18:00 +26°C° 0 mm 1 m/s 740 mmHg 61%
19:00 +24°C° 0 mm 1 m/s 740 mmHg 66%
20:00 +23°C° 0 mm 1 m/s 739 mmHg 71%
21:00 +22°C° 0 mm 1 m/s 740 mmHg 73%
22:00 +21°C° 0 mm 1 m/s 740 mmHg 76%
23:00 +21°C° 0 mm 1 m/s 740 mmHg 78%

11 August, Marţi

Timp Temperatura Precipitaţii Vânt Presiune Umiditate
00:00 +20°C° 0 mm 1 m/s 740 mmHg 79%
01:00 +20°C° 0 mm 1 m/s 740 mmHg 80%
02:00 +20°C° 0 mm 1 m/s 740 mmHg 80%
03:00 +19°C° 0 mm 1 m/s 740 mmHg 82%
04:00 +19°C° 0 mm 1 m/s 740 mmHg 84%
05:00 +19°C° 0 mm 1 m/s 740 mmHg 86%
06:00 +20°C° 0 mm 1 m/s 740 mmHg 82%
07:00 +21°C° 0 mm 1 m/s 740 mmHg 78%
08:00 +23°C° 0 mm 1 m/s 740 mmHg 74%
09:00 +24°C° 0.2 mm 1 m/s 740 mmHg 70%
10:00 +25°C° 0.2 mm 1 m/s 740 mmHg 65%
11:00 +27°C° 0.2 mm 1 m/s 741 mmHg 61%
12:00 +27°C° 0.6 mm 1 m/s 740 mmHg 59%
13:00 +28°C° 0.6 mm 2 m/s 740 mmHg 56%
14:00 +28°C° 0.6 mm 2 m/s 740 mmHg 54%
15:00 +28°C° 0.3 mm 2 m/s 740 mmHg 57%
16:00 +28°C° 0.3 mm 2 m/s 740 mmHg 59%
17:00 +27°C° 0.3 mm 3 m/s 740 mmHg 62%
18:00 +26°C° 0.3 mm 2 m/s 740 mmHg 67%
19:00 +24°C° 0.3 mm 2 m/s 740 mmHg 73%
20:00 +21°C° 0.3 mm 2 m/s 740 mmHg 79%
21:00 +21°C° 0 mm 2 m/s 740 mmHg 81%
22:00 +20°C° 0 mm 2 m/s 740 mmHg 82%
23:00 +19°C° 0 mm 2 m/s 740 mmHg 84%

12 August, Miercuri

Timp Temperatura Precipitaţii Vânt Presiune Umiditate
00:00 +19°C° 0 mm 2 m/s 740 mmHg 86%
01:00 +18°C° 0 mm 2 m/s 740 mmHg 87%
02:00 +18°C° 0 mm 2 m/s 740 mmHg 89%
03:00 +17°C° 0 mm 2 m/s 740 mmHg 90%
04:00 +17°C° 0 mm 2 m/s 741 mmHg 92%
05:00 +16°C° 0 mm 2 m/s 741 mmHg 94%
06:00 +18°C° 0.1 mm 2 m/s 741 mmHg 90%
07:00 +19°C° 0.1 mm 2 m/s 741 mmHg 87%
08:00 +20°C° 0.1 mm 2 m/s 741 mmHg 84%
09:00 +21°C° 0.1 mm 3 m/s 742 mmHg 79%
10:00 +22°C° 0.1 mm 3 m/s 742 mmHg 75%
11:00 +23°C° 0.1 mm 4 m/s 742 mmHg 70%
12:00 +23°C° 0 mm 4 m/s 742 mmHg 67%
13:00 +23°C° 0 mm 4 m/s 742 mmHg 64%
14:00 +23°C° 0 mm 4 m/s 742 mmHg 61%
15:00 +23°C° 0 mm 4 m/s 742 mmHg 62%
16:00 +23°C° 0 mm 4 m/s 742 mmHg 62%
17:00 +22°C° 0 mm 4 m/s 742 mmHg 62%
18:00 +21°C° 0 mm 4 m/s 742 mmHg 67%
19:00 +19°C° 0 mm 3 m/s 742 mmHg 71%
20:00 +17°C° 0 mm 3 m/s 743 mmHg 76%
21:00 +16°C° 0 mm 3 m/s 743 mmHg 78%
22:00 +14°C° 0 mm 3 m/s 743 mmHg 79%
23:00 +14°C° 0 mm 2 m/s 743 mmHg 81%

13 August, Joi

Timp Temperatura Precipitaţii Vânt Presiune Umiditate
00:00 +14°C° 0 mm 2 m/s 743 mmHg 82%
01:00 +13°C° 0 mm 2 m/s 743 mmHg 83%
02:00 +13°C° 0 mm 1 m/s 743 mmHg 84%
03:00 +13°C° 0 mm 1 m/s 743 mmHg 83%
04:00 +13°C° 0 mm 1 m/s 743 mmHg 83%
05:00 +12°C° 0 mm 1 m/s 743 mmHg 83%
06:00 +14°C° 0 mm 1 m/s 743 mmHg 79%
07:00 +15°C° 0 mm 2 m/s 743 mmHg 75%
08:00 +17°C° 0 mm 2 m/s 743 mmHg 71%
09:00 +18°C° 0 mm 2 m/s 743 mmHg 67%
10:00 +19°C° 0 mm 2 m/s 743 mmHg 62%
11:00 +20°C° 0 mm 2 m/s 743 mmHg 57%
12:00 +21°C° 0 mm 2 m/s 743 mmHg 55%
13:00 +23°C° 0 mm 2 m/s 742 mmHg 52%
14:00 +23°C° 0 mm 2 m/s 742 mmHg 50%
15:00 +23°C° 0 mm 2 m/s 742 mmHg 51%
16:00 +23°C° 0 mm 2 m/s 742 mmHg 51%
17:00 +24°C° 0 mm 2 m/s 742 mmHg 52%
18:00 +21°C° 0 mm 2 m/s 742 mmHg 57%
19:00 +19°C° 0 mm 2 m/s 742 mmHg 63%
20:00 +17°C° 0 mm 2 m/s 742 mmHg 69%
21:00 +17°C° 0 mm 2 m/s 742 mmHg 71%
22:00 +16°C° 0 mm 2 m/s 742 mmHg 74%
23:00 +14°C° 0 mm 3 m/s 742 mmHg 76%
Arată mai mult